Peru, IN

12:54 PM EDT on April 30, 2017 (GMT -0400)
Grissom Air Reserve Base

Weather History for KGUS - April, 2013

Change the Weather History Date:

Tuesday, April 30, 2013

  Actual Average Record
Temperature  
Mean Temperature 66 °F -  
Max Temperature 79 °F 66 °F 84 °F (2001)
Min Temperature 53 °F 47 °F 33 °F (2008)
Cooling Degree Days 1    
Growing Degree Days 16 (Base 50)    
Moisture  
Dew Point 57 °F    
Average Humidity 73    
Maximum Humidity 92    
Minimum Humidity 54    
Precipitation  
Precipitation 0.00 in - - ()
Sea Level Pressure  
Sea Level Pressure 29.96 in    
Wind  
Wind Speed 12 mph (South)    
Max Wind Speed 17 mph    
Max Gust Speed 23 mph    
Visibility 10 miles    
Events      
Averages and records for this station are not official NWS values.
T = Trace of Precipitation, MM = Missing Value Source: NWS Daily Summary

Daily Weather History Graph

Daily Weather History Graph

Search for Another Location

Airport or City:

Trip Planner

Search our weather history database for the weather conditions in past years. The results will help you decide how hot, cold, wet, or windy it might be!

Date:

Astronomy

Apr. 30, 2013 Rise Set
Actual Time 6:44 AM EDT 8:39 PM EDT
Civil Twilight 6:14 AM EDT 9:09 PM EDT
Nautical Twilight 5:38 AM EDT 9:45 PM EDT
Astronomical Twilight 4:59 AM EDT 10:24 PM EDT
Moon 1:02 AM EDT 11:12 AM EDT
Length of Visible Light 14h 54m
Length of Day
13h 55m
Waning Gibbous, 70% of the Moon is Illuminated
Apr 30
Waning Gibbous
May 2
Last Quarter
May 9
New
May 18
First Quarter
May 25
Full

Hourly Weather History & Observations

Time (EDT) Temp. Dew Point Humidity Pressure Visibility Wind Dir Wind Speed Gust Speed Precip Events Conditions
12:58 AM 56.7 °F 53.1 °F 88% 29.93 in 10.0 mi SSE 10.4 mph - N/A   Overcast
1:58 AM 56.5 °F 53.1 °F 88% 29.94 in 10.0 mi SSE 11.5 mph - N/A   Overcast
2:58 AM 56.3 °F 52.9 °F 88% 29.94 in 10.0 mi South 10.4 mph - N/A   Overcast
3:58 AM 55.0 °F 52.3 °F 91% 29.93 in 10.0 mi South 10.4 mph - N/A   Clear
4:58 AM 53.8 °F 51.6 °F 92% 29.94 in 10.0 mi South 8.1 mph - N/A   Clear
5:58 AM 53.6 °F 51.4 °F 92% 29.94 in 10.0 mi SSE 8.1 mph - N/A   Clear
6:58 AM 53.1 °F 50.9 °F 92% 29.95 in 10.0 mi South 10.4 mph - N/A   Clear
7:58 AM 55.8 °F 52.0 °F 87% 29.95 in 10.0 mi South 12.7 mph - N/A   Clear
8:58 AM 60.4 °F 53.6 °F 78% 29.97 in 10.0 mi South 13.8 mph - N/A   Clear
9:58 AM 63.7 °F 54.0 °F 71% 29.98 in 10.0 mi South 12.7 mph - N/A   Clear
10:30 AM 66.2 °F 55.4 °F 68% 29.96 in 10.0 mi South 17.3 mph - N/A   Clear
10:58 AM 68.4 °F 56.3 °F 65% 29.97 in 10.0 mi South 17.3 mph 23.0 mph N/A   Clear
11:58 AM 71.8 °F 57.9 °F 62% 29.97 in 10.0 mi South 12.7 mph - N/A   Clear
12:58 PM 74.3 °F 59.4 °F 60% 29.96 in 10.0 mi South 15.0 mph - N/A   Partly Cloudy
1:58 PM 74.5 °F 59.9 °F 60% 29.96 in 10.0 mi South 11.5 mph - N/A   Scattered Clouds
2:58 PM 77.7 °F 61.5 °F 57% 29.95 in 10.0 mi South 12.7 mph - N/A   Clear
3:58 PM 78.8 °F 60.8 °F 54% 29.94 in 10.0 mi South 12.7 mph - N/A   Clear
4:58 PM 79.2 °F 61.9 °F 55% 29.93 in 10.0 mi SSE 16.1 mph - N/A   Clear
5:58 PM 78.3 °F 62.1 °F 57% 29.94 in 10.0 mi SSE 15.0 mph - N/A   Clear
6:58 PM 77.4 °F 61.9 °F 59% 29.96 in 10.0 mi SSE 15.0 mph - N/A   Clear
7:58 PM 74.8 °F 61.2 °F 62% 29.97 in 10.0 mi SSE 10.4 mph - N/A   Clear
8:58 PM 70.0 °F 61.2 °F 73% 29.99 in 10.0 mi SSE 9.2 mph - N/A   Clear
9:58 PM 68.2 °F 60.6 °F 77% 30.01 in 10.0 mi SSE 9.2 mph - N/A   Clear
10:58 PM 67.1 °F 58.3 °F 73% 30.02 in 10.0 mi SSE 9.2 mph - N/A   Clear
11:58 PM 66.4 °F 55.6 °F 68% 30.02 in 10.0 mi South 10.4 mph - N/A   Clear